Wind_Speed
67 67 62 55 55 54 53 54 54 49 49 49 48 48 41 33 36 37 28 26 27 22 26 31 24 25 28 30 30 33 26 30 29 25 27 27 25 24 26 29 30 31 33 35
71 65 55 55 60 58 58 56 50 47 45 39 38 43 40 38 38 34 25 30 22 26 30 26 24 25 23 26 31 30 27 27 24 24 25 24 24 26 30 31 32 32 32 36
70 61 60 62 63 60 57 56 50 51 46 41 43 48 44 38 36 28 29 24 26 29 25 20 21 21 21 26 29 28 29 24 23 25 22 24 25 28 31 30 30 29 32 33
70 64 64 65 66 64 60 54 51 50 47 46 43 54 44 30 30 27 26 24 27 26 21 20 22 23 25 28 29 26 27 21 24 24 21 23 25 29 28 25 26 29 27 28
63 66 67 70 65 66 57 58 54 54 51 50 49 53 28 28 25 22 21 27 26 19 16 17 22 25 31 28 23 27 24 22 23 21 21 22 26 26 22 24 25 24 24 25
60 60 60 65 63 66 63 63 62 58 55 59 44 46 22 24 17 16 24 27 20 17 18 23 25 27 30 21 21 27 22 22 22 19 20 23 25 21 22 23 24 21 23 24
50 55 58 60 64 64 63 65 64 63 64 50 45 45 23 24 15 23 29 23 18 17 19 24 20 24 16 15 20 21 21 21 18 19 21 24 21 22 23 24 20 20 20 23
36 44 56 60 64 62 65 62 64 66 63 58 57 47 32 31 22 26 27 22 21 21 19 14 14 16 17 19 18 18 19 17 17 19 21 22 20 22 24 20 16 17 18 18
23 35 43 50 55 61 58 64 62 64 64 64 57 48 42 34 23 31 27 24 15 20 23 13 16 18 18 20 18 18 16 15 16 19 20 19 20 22 23 17 15 17 19 16
28 31 30 36 52 57 57 57 59 64 64 65 57 50 42 34 30 30 28 22 16 16 12 16 15 20 20 20 18 15 15 15 16 18 19 17 19 21 20 16 16 15 16 14
30 38 33 32 42 48 56 57 59 59 63 63 58 53 41 34 33 31 25 14 8 6 11 16 16 19 19 20 14 12 15 15 15 17 17 16 18 18 19 15 12 12 12 11
20 28 27 27 37 44 50 57 60 61 62 61 61 54 47 33 40 38 31 13 13 2 11 20 21 17 19 18 12 14 14 14 14 16 15 16 16 14 15 11 10 11 9 10
20 22 18 19 40 48 49 57 61 63 61 62 62 49 36 37 34 35 27 23 13 6 13 16 13 13 20 17 14 15 13 13 13 14 13 14 13 11 14 12 12 10 10 10
20 12 16 18 27 45 52 48 58 66 66 61 59 48 36 45 43 38 24 18 15 11 16 19 14 16 19 17 15 13 13 11 13 10 12 12 9 11 12 10 10 10 10 7
13 13 16 17 18 41 52 50 56 65 66 65 54 46 47 44 40 34 27 22 14 15 19 15 15 15 15 16 13 12 10 11 9 10 10 9 6 7 10 9 11 9 8 7
10 7 8 5 13 30 42 48 52 57 66 61 57 51 42 37 43 41 33 26 18 19 23 18 15 15 16 14 11 11 8 9 6 8 8 8 7 7 10 10 11 9 6 5
8 9 5 4 8 17 32 47 49 51 62 61 60 52 44 47 42 41 32 25 18 21 21 22 17 18 17 13 10 10 7 7 6 6 8 8 7 7 10 11 11 7 4 1
9 6 5 3 4 11 27 33 42 42 57 58 56 46 57 46 35 39 33 28 24 24 23 20 21 19 17 12 11 9 5 5 4 5 6 6 5 7 10 12 8 7 6 6
4 5 4 11 7 11 22 29 32 38 53 49 50 49 54 37 35 31 31 35 29 31 25 24 24 18 16 12 11 9 5 3 3 4 4 4 7 8 10 11 6 6 9 7
3 7 4 6 4 6 18 23 32 43 51 41 51 60 45 45 42 40 36 31 30 31 29 28 22 19 15 12 12 9 4 2 2 2 3 5 7 7 9 10 7 8 9 8
7 10 11 4 6 6 19 28 46 50 51 43 59 61 51 45 44 40 40 35 34 36 31 28 24 21 16 13 11 9 3 1 3 2 3 4 7 7 8 10 10 11 11 8
11 10 19 5 3 5 13 32 50 44 38 46 63 53 52 52 39 50 43 36 37 36 34 30 27 20 16 13 13 10 4 1 4 3 3 2 6 7 9 13 15 18 21 22
8 9 9 13 10 11 9 36 39 46 53 47 72 57 53 50 38 38 39 39 37 37 35 32 26 19 17 15 14 12 7 2 4 4 3 3 5 7 7 10 11 15 18 18
9 12 14 16 17 10 14 30 32 46 43 35 61 56 42 52 50 45 42 37 35 37 36 29 24 20 16 16 16 15 10 5 4 5 4 4 6 8 10 12 13 15 18 20
13 9 11 10 16 7 15 16 27 38 45 48 54 50 42 54 50 42 36 39 35 30 28 31 30 25 21 18 18 18 14 9 5 6 5 6 8 9 12 16 17 17 17 18
10 14 12 7 11 16 14 9 12 33 36 46 50 52 41 43 43 48 47 43 38 35 33 32 37 30 24 20 19 20 17 12 8 8 8 7 9 10 11 12 12 12 14 13
Wind_Direction
238 239 241 243 246 247 249 249 250 250 252 252 251 253 253 257 256 256 254 261 264 272 267 264 274 280 285 296 285 273 269 272 275 275 284 290 301 306 308 313 309 310 308 307
238 240 241 240 241 241 242 245 245 251 255 256 254 255 252 245 249 257 259 254 263 263 268 273 283 286 289 285 275 270 270 270 266 271 282 293 304 308 311 310 308 309 310 308
237 237 236 237 239 240 241 242 243 247 248 248 252 252 249 245 252 253 253 259 258 264 275 288 274 275 283 281 282 282 267 270 263 271 282 293 302 306 307 306 307 307 307 309
231 231 233 237 237 238 238 242 242 243 245 244 246 253 244 242 244 239 243 252 259 267 290 284 271 275 273 273 281 284 267 260 261 276 282 293 301 305 307 307 308 309 307 309
227 229 228 230 234 237 237 237 239 241 241 242 240 249 238 240 236 236 251 254 262 277 281 275 271 266 267 270 279 264 264 257 269 275 286 297 304 307 308 306 305 305 307 316
221 225 226 228 230 232 233 235 235 236 239 239 238 249 227 228 231 240 247 255 262 255 277 278 266 269 271 286 258 257 252 257 268 278 293 301 304 306 308 304 309 310 317 317
225 221 222 224 227 229 229 232 234 234 236 237 233 241 214 219 219 237 243 253 262 276 285 280 276 276 281 248 247 245 248 258 267 287 298 300 303 309 306 311 309 312 319 323
221 219 220 220 222 224 225 228 232 235 238 238 239 238 226 232 234 251 248 256 272 275 288 285 261 265 232 235 240 243 257 263 274 290 295 298 304 307 310 312 306 310 323 324
223 210 216 221 222 222 220 225 228 232 233 236 235 232 231 234 223 245 263 263 262 281 279 251 245 232 228 228 229 250 265 267 282 289 294 299 304 305 312 311 306 313 317 317
238 227 218 219 222 221 219 221 223 228 230 233 230 230 227 229 231 244 246 255 277 271 270 233 237 230 226 218 234 260 263 272 283 287 296 300 303 310 315 315 312 317 323 325
255 251 226 227 228 219 220 215 220 222 229 230 229 227 224 229 231 230 238 256 240 248 221 217 231 230 225 226 249 254 259 278 280 289 300 302 310 315 319 310 299 323 322 318
247 243 251 238 220 219 219 214 216 217 223 227 229 221 221 228 222 233 239 207 210 213 252 236 239 232 227 233 254 250 266 273 277 297 296 306 315 321 331 338 330 323 321 320
252 260 258 225 216 216 215 215 212 218 218 222 227 220 215 219 209 223 227 211 212 221 228 254 252 236 229 235 242 253 268 262 285 292 304 313 313 322 333 336 330 321 312 313
250 257 260 223 218 212 213 211 211 213 217 218 223 218 207 209 219 220 212 233 214 252 229 238 250 243 237 237 238 258 252 268 288 299 310 318 332 343 333 339 325 312 314 318
251 255 266 269 233 213 215 208 215 210 215 217 216 209 192 202 206 207 205 221 238 224 228 236 244 236 227 231 243 246 241 275 294 303 316 327 333 342 335 336 328 325 317 326
240 277 267 273 241 221 211 200 215 211 212 210 210 204 178 193 202 207 213 225 201 210 217 233 233 222 222 235 240 232 249 289 299 302 325 327 323 333 326 334 336 331 338 334
272 243 228 170 223 222 219 205 208 214 207 208 206 204 189 199 208 220 215 205 206 216 219 230 222 220 223 231 233 225 259 297 288 312 321 326 331 344 333 344 348 342 350 37
211 240 280 171 203 196 210 216 215 214 203 207 204 175 191 194 202 202 204 198 207 211 210 213 213 219 227 225 222 213 256 286 282 311 318 333 356 356 348 350 6 11 98 80
218 222 237 155 189 217 217 226 208 201 198 202 196 179 189 194 175 189 198 201 210 210 210 209 209 218 221 216 209 204 244 278 266 306 323 353 15 7 352 358 14 70 104 100
356 142 115 230 169 183 203 202 200 192 191 196 185 185 193 185 189 195 194 196 204 208 209 212 208 218 214 211 200 195 227 262 237 295 320 4 33 28 2 11 46 108 95 77
14 44 21 342 235 112 170 203 180 185 186 196 187 190 187 191 194 203 203 203 207 209 203 208 207 212 204 198 191 186 211 204 196 258 315 12 46 44 35 49 77 79 70 66
18 51 30 91 235 349 89 156 174 179 178 192 195 185 200 188 187 204 203 202 205 196 201 208 213 210 197 185 182 179 184 179 183 212 278 45 61 62 59 72 92 89 76 74
6 11 349 57 66 94 111 148 160 182 187 189 192 192 195 193 169 180 192 199 195 189 193 199 209 199 190 182 174 177 180 175 183 197 233 93 80 75 74 87 86 82 83 74
344 338 333 355 8 9 156 149 155 170 182 182 189 197 198 187 192 196 187 184 191 200 185 193 208 193 186 180 172 176 183 190 180 194 194 124 102 87 88 89 86 82 85 82
4 331 331 346 341 318 191 158 148 149 181 170 177 184 181 179 186 178 190 192 190 201 182 190 196 186 189 186 176 177 183 195 177 190 173 137 119 106 106 100 93 88 82 81
358 338 333 338 320 324 308 281 181 153 178 182 201 180 180 167 184 191 198 203 196 199 201 202 200 181 181 182 182 182 183 195 177 188 169 152 138 132 125 112 99 91 85 78
Height
5697 5701 5714 5731 5735 5740 5744 5744 5746 5752 5759 5767 5766 5767 5776 5782 5782 5782 5790 5791 5794 5796 5792 5790 5792 5790 5789 5790 5789 5786 5786 5785 5783 5780 5778 5775 5773 5769 5766 5763 5761 5758 5754 5750
5681 5696 5715 5717 5713 5722 5727 5731 5739 5746 5750 5756 5759 5756 5763 5769 5771 5777 5783 5785 5789 5784 5782 5784 5783 5781 5783 5783 5781 5779 5779 5777 5776 5774 5772 5769 5766 5763 5761 5758 5755 5752 5748 5743
5669 5691 5696 5697 5701 5708 5715 5721 5732 5735 5740 5746 5745 5741 5751 5761 5765 5772 5772 5778 5777 5774 5777 5777 5774 5775 5776 5774 5772 5772 5771 5770 5770 5769 5767 5765 5762 5760 5758 5755 5751 5747 5743 5738
5655 5671 5678 5683 5687 5692 5702 5713 5719 5722 5728 5732 5739 5727 5741 5755 5759 5762 5767 5769 5766 5768 5770 5769 5768 5768 5767 5766 5765 5764 5763 5764 5764 5764 5763 5761 5758 5755 5752 5748 5745 5742 5738 5735
5651 5655 5654 5659 5676 5681 5698 5699 5704 5709 5715 5722 5724 5723 5742 5749 5752 5758 5761 5759 5760 5763 5763 5761 5761 5760 5760 5758 5759 5758 5759 5759 5759 5759 5757 5755 5752 5749 5747 5744 5742 5738 5734 5729
5627 5625 5637 5653 5661 5666 5680 5685 5690 5698 5704 5703 5721 5722 5737 5742 5747 5752 5753 5751 5755 5756 5756 5755 5754 5753 5752 5752 5752 5753 5753 5754 5755 5754 5751 5748 5747 5745 5743 5740 5736 5731 5728 5724
5606 5614 5627 5636 5647 5654 5663 5671 5677 5685 5688 5704 5712 5715 5733 5735 5742 5741 5742 5745 5747 5749 5749 5747 5747 5747 5748 5747 5747 5748 5749 5750 5750 5748 5746 5744 5741 5740 5738 5735 5730 5727 5723 5719
5598 5610 5615 5622 5629 5638 5647 5656 5668 5675 5682 5694 5700 5707 5722 5727 5735 5735 5737 5740 5742 5743 5743 5743 5742 5741 5742 5743 5744 5746 5746 5746 5746 5743 5742 5739 5737 5736 5733 5730 5726 5724 5720 5716
5592 5598 5605 5611 5620 5624 5636 5646 5659 5664 5671 5678 5692 5703 5711 5720 5729 5729 5731 5733 5737 5737 5736 5737 5736 5736 5736 5739 5740 5742 5742 5742 5741 5739 5738 5735 5733 5732 5728 5725 5722 5719 5716 5713
5587 5593 5601 5601 5604 5614 5627 5641 5645 5651 5658 5667 5683 5693 5702 5713 5721 5722 5722 5726 5732 5731 5730 5731 5731 5732 5733 5735 5737 5737 5738 5738 5736 5736 5734 5732 5730 5727 5723 5720 5717 5714 5712 5710
5581 5584 5594 5595 5597 5609 5616 5627 5630 5639 5647 5660 5675 5682 5698 5707 5711 5716 5718 5721 5726 5726 5725 5726 5727 5728 5730 5732 5733 5734 5734 5733 5733 5732 5729 5728 5726 5723 5719 5716 5713 5711 5710 5708
5575 5576 5583 5587 5591 5598 5603 5613 5617 5624 5639 5652 5663 5674 5690 5699 5702 5708 5710 5717 5721 5720 5722 5723 5724 5726 5727 5729 5730 5731 5731 5730 5730 5728 5726 5724 5722 5719 5716 5713 5710 5708 5707 5706
5572 5571 5572 5577 5583 5586 5591 5597 5608 5619 5630 5638 5648 5672 5687 5690 5692 5700 5702 5711 5716 5718 5720 5720 5721 5722 5724 5726 5727 5728 5727 5727 5727 5725 5723 5721 5719 5716 5713 5710 5707 5706 5705 5704
5565 5567 5567 5570 5571 5573 5580 5589 5597 5605 5615 5633 5641 5664 5680 5681 5687 5692 5695 5702 5710 5713 5715 5716 5718 5720 5721 5724 5724 5725 5725 5725 5724 5721 5720 5719 5716 5713 5711 5708 5706 5704 5703 5701
5562 5563 5562 5562 5563 5564 5571 5582 5586 5595 5607 5619 5642 5656 5667 5676 5681 5687 5689 5696 5704 5708 5711 5714 5715 5717 5719 5722 5722 5722 5723 5722 5720 5719 5718 5716 5715 5712 5709 5707 5704 5702 5700 5698
5559 5560 5558 5558 5559 5561 5566 5577 5580 5589 5598 5616 5633 5648 5663 5666 5672 5678 5683 5692 5700 5704 5707 5710 5713 5714 5717 5719 5720 5720 5721 5719 5717 5717 5716 5714 5713 5710 5708 5706 5702 5699 5697 5696
5557 5556 5555 5556 5557 5560 5566 5570 5575 5584 5595 5611 5624 5639 5654 5657 5667 5675 5681 5689 5695 5700 5704 5708 5710 5712 5715 5716 5717 5718 5718 5716 5716 5716 5715 5713 5712 5709 5707 5704 5700 5697 5695 5695
5555 5554 5554 5556 5557 5560 5565 5569 5575 5584 5597 5608 5618 5637 5644 5652 5657 5667 5677 5683 5690 5696 5700 5703 5706 5709 5712 5714 5714 5716 5716 5715 5715 5715 5714 5713 5712 5709 5706 5703 5699 5696 5695 5695
5553 5554 5554 5554 5556 5557 5560 5565 5573 5582 5598 5605 5618 5630 5637 5646 5652 5663 5668 5674 5685 5691 5696 5700 5703 5707 5710 5711 5712 5713 5714 5713 5713 5714 5713 5712 5710 5708 5706 5702 5699 5697 5697 5696
5553 5553 5553 5553 5552 5554 5557 5561 5568 5578 5592 5601 5615 5621 5629 5638 5645 5654 5662 5672 5679 5686 5692 5696 5701 5704 5708 5709 5709 5711 5712 5712 5713 5713 5713 5712 5710 5708 5706 5703 5700 5698 5698 5698
5554 5553 5553 5554 5553 5554 5556 5554 5565 5577 5592 5598 5607 5613 5622 5630 5639 5647 5656 5667 5675 5680 5687 5693 5698 5701 5705 5706 5707 5709 5711 5711 5712 5712 5713 5711 5710 5708 5707 5705 5702 5701 5700 5698
5555 5555 5553 5552 5554 5556 5553 5557 5567 5578 5587 5592 5599 5612 5619 5628 5635 5642 5650 5661 5669 5673 5682 5690 5694 5699 5702 5703 5705 5707 5710 5710 5711 5712 5713 5712 5710 5710 5709 5707 5706 5704 5703 5701
5558 5555 5555 5556 5557 5559 5556 5562 5568 5577 5585 5585 5595 5605 5615 5626 5631 5638 5647 5656 5664 5668 5677 5685 5689 5694 5698 5700 5702 5706 5708 5710 5711 5712 5713 5711 5711 5711 5711 5710 5709 5708 5707 5706
5558 5556 5556 5558 5556 5554 5556 5559 5565 5573 5577 5585 5593 5603 5612 5619 5629 5636 5645 5651 5659 5663 5672 5680 5687 5690 5694 5697 5699 5704 5707 5710 5710 5711 5713 5712 5712 5713 5713 5712 5712 5711 5711 5709
5560 5558 5557 5558 5556 5559 5559 5561 5562 5569 5578 5580 5589 5600 5607 5617 5626 5634 5642 5648 5656 5661 5667 5674 5681 5686 5691 5695 5697 5701 5705 5709 5710 5711 5713 5713 5714 5715 5715 5715 5716 5716 5716 5715
5561 5557 5557 5558 5559 5561 5561 5561 5562 5565 5576 5581 5590 5599 5604 5615 5624 5631 5639 5645 5653 5659 5665 5672 5675 5681 5686 5691 5694 5699 5703 5707 5709 5710 5712 5713 5714 5716 5718 5718 5719 5719 5719 5719